This demonstration page uses our WeatherBlox Daily Observations layout. Learn more.

Left ArrowRight Arrow

39.92423, -83.80882

Hourly Observations for March 24, 2022

Temp ( °F °C ) Dew Point ( °F °C ) Humidity (%) Winds ( mph kmh ) Pressure ( in mb ) Visibility ( mi km ) Precip ( " mm )
12:56 am 00:56 Partly Cloudy 46 7.8 42 5.6 86 86 WSW 12 19 29.73 1007 10 16 0.00 0.00
1:56 am 01:56 Mostly Cloudy 46 7.8 41 5 83 83 SW 13 20 29.75 1008 10 16 0.00 0.00
2:16 am 02:16 Cloudy 46 8 41 5 82 82 SW 16 26 29.77 1008 10 16 0.00 0.00
2:56 am 02:56 Cloudy 46 7.8 40 4.4 79 79 SW 12 19 29.76 1008 10 16 0.00 0.00
3:56 am 03:56 Cloudy 46 7.8 42 5.6 86 86 SSW 16 26 29.77 1008 10 16 0.00 0.00
4:56 am 04:56 Cloudy 46 7.8 42 5.6 86 86 SSW 18 30 29.77 1008 10 16 0.00 0.00
5:17 am 05:17 Cloudy 46 8 41 5 82 82 SW 16 26 29.80 1009 10 16 0.00 0.00
5:56 am 05:56 Cloudy 46 7.8 40 4.4 79 79 SW 17 28 29.78 1009 10 16 0.00 0.00
6:06 am 06:06 Cloudy 45 7 39 4 81 81 SW 21 33 29.80 1009 10 16 0.00 0.00
6:56 am 06:56 Cloudy 45 7.2 40 4.4 83 83 SSW 15 24 29.80 1009 10 16 0.00 0.00
7:56 am 07:56 Cloudy 45 7.2 39 3.9 80 80 SW 13 20 29.82 1010 10 16 0.00 0.00
8:56 am 08:56 Cloudy 45 7.2 38 3.3 77 77 SW 14 22 29.83 1010 10 16 0.00 0.00
9:42 am 09:42 Cloudy 45 7 37 3 76 76 SSW 13 20 29.84 1011 10 16 0.00 0.00
9:56 am 09:56 Cloudy 46 7.8 38 3.3 73 73 SSW 13 20 29.83 1010 10 16 0.00 0.00
10:32 am 10:32 Cloudy 46 8 37 3 71 71 SW 15 24 29.84 1010 10 16 0.00 0.00
10:56 am 10:56 Cloudy 46 7.8 37 2.8 71 71 SW 21 33 29.83 1010 10 16 0.00 0.00
11:11 am 11:11 Cloudy 46 8 36 2 66 66 SW 14 22 29.85 1011 10 16 0.00 0.00
11:56 am 11:56 Cloudy 48 8.9 36 2.2 63 63 SW 21 33 29.82 1010 10 16 0.00 0.00
12:56 pm 12:56 Mostly Cloudy 51 10.6 35 1.7 54 54 SW 21 33 29.80 1009 10 16 0.00 0.00
1:56 pm 13:56 Mostly Cloudy 52 11.1 35 1.7 53 53 SW 20 31 29.79 1009 10 16 0.00 0.00
2:56 pm 14:56 Mostly Cloudy 52 11.1 34 1.1 50 50 SW 23 37 29.77 1008 10 16 0.00 0.00
3:56 pm 15:56 Cloudy 52 11.1 34 1.1 50 50 SW 18 30 29.76 1008 10 16 0.00 0.00
4:56 pm 16:56 Mostly Cloudy 53 11.7 32 0 45 45 SW 20 31 29.76 1008 10 16 0.00 0.00
5:56 pm 17:56 Sunny 51 10.6 36 2.2 56 56 WSW 14 22 29.77 1008 10 16 0.00 0.00
6:56 pm 18:56 Cloudy 49 9.4 34 1.1 56 56 WSW 14 22 29.79 1009 10 16 0.00 0.00
7:56 pm 19:56 Cloudy 47 8.3 34 1.1 61 61 W 17 28 29.80 1009 10 16 0.00 0.00
8:56 pm 20:56 Mostly Clear 45 7.2 31 -0.6 58 58 W 16 26 29.83 1010 10 16 0.00 0.00
9:56 pm 21:56 Partly Cloudy 43 6.1 33 0.6 68 68 W 12 19 29.84 1010 10 16 0.00 0.00
10:56 pm 22:56 Mostly Cloudy 42 5.6 33 0.6 71 71 W 12 19 29.84 1011 10 16 0.00 0.00
11:56 pm 23:56 Mostly Clear 40 4.4 34 1.1 79 79 WSW 8 13 29.84 1011 10 16 0.00 0.00

Powered by AerisWeather